Inquirer Daily News

Weather

Get conditions and forecasts for any City, State, ZIP code or Country:  
Northeast Philadelphia, PA
on Monday, February 18, 2013

Monday
Previous Day Next Day
Daily Summary
 ActualAverage (KTTN)Record (KTTN)
Temperature
Mean Temperature °F 34°F  
Max Temperature 36°F 43°F 72°F (1890)
Min Temperature 19°F 26°F -1°F (1979)
Degree Days
Heating Degree Days 38 30  
Month to date heating degree days 575  
Since 1 July heating degree days 3521  
Cooling Degree Days 0 0  
Month to date cooling degree days 0  
Year to date cooling degree days 0  
Moisture
Dew Point 6°F   
Average Humidity 41    
Maximum Humidity 50    
Minimum Humidity 31    
Precipitation
Precipitation 0.00 in 0.08 in 1.14 in (1956)
Month to date precipitation 1.40  
Year to date precipitation 4.56  
Wind
Wind Speed 12 mph   
Max Wind Speed 17 mph   
Max Gust Speed 25 mph   
Visibility 10 miles   
Events     

Key: T is trace of precipitation, MM is missing value
Source: NWS Daily Summary
Time(EST)TemperatureDew PointHumidity Pressure Visibility Wind DirectionWind SpeedGust SpeedPrecipitationEvents Conditions
12:54 AM 19.9°F 1.0°F 44% 30.12 in 10.0 miles WNW 15.0 mph 23.0 mph N/A   Clear
1:54 AM 19.9°F 1.9°F 46% 30.14 in 10.0 miles WNW 16.1 mph 25.3 mph N/A   Clear
2:54 AM 19.9°F 1.9°F 46% 30.16 in 10.0 miles NW 10.4 mph 23.0 mph N/A   Clear
3:54 AM 19.4°F 1.4°F 46% 30.17 in 10.0 miles WNW 13.8 mph 19.6 mph N/A   Clear
4:54 AM 19.9°F 1.9°F 46% 30.21 in 10.0 miles NW 17.3 mph 23.0 mph N/A   Clear
5:54 AM 19.0°F 1.9°F 47% 30.23 in 10.0 miles NW 12.7 mph - N/A   Clear
6:54 AM 19.0°F 3.0°F 50% 30.27 in 10.0 miles WNW 10.4 mph - N/A   Clear
7:54 AM 21.0°F 3.9°F 48% 30.30 in 10.0 miles NW 16.1 mph 20.7 mph N/A   Clear
8:54 AM 23.0°F 3.0°F 42% 30.32 in 10.0 miles NW 17.3 mph 23.0 mph N/A   Clear
9:54 AM 26.1°F 3.9°F 39% 30.33 in 10.0 miles West 15.0 mph 20.7 mph N/A   Clear
10:54 AM 28.0°F 5.0°F 38% 30.34 in 10.0 miles West 15.0 mph 21.9 mph N/A   Clear
11:54 AM 30.9°F 7.0°F 37% 30.32 in 10.0 miles WNW 12.7 mph 19.6 mph N/A   Clear
12:54 PM 33.1°F 8.1°F 35% 30.28 in 10.0 miles West 13.8 mph 20.7 mph N/A   Clear
1:54 PM 34.0°F 8.1°F 34% 30.26 in 10.0 miles West 11.5 mph 18.4 mph N/A   Clear
2:54 PM 35.1°F 7.0°F 31% 30.25 in 10.0 miles WSW 10.4 mph - N/A   Clear
3:54 PM 36.0°F 9.0°F 33% 30.25 in 10.0 miles West 13.8 mph - N/A   Clear
4:54 PM 35.1°F 8.1°F 33% 30.25 in 10.0 miles WNW 8.1 mph - N/A   Clear
5:54 PM 33.1°F 7.0°F 34% 30.25 in 10.0 miles West 5.8 mph - N/A   Clear
6:54 PM 32.0°F 8.1°F 37% 30.27 in 10.0 miles WSW 4.6 mph - N/A   Clear
7:54 PM 32.0°F 9.0°F 38% 30.27 in 10.0 miles SSW 3.5 mph - N/A   Clear
8:54 PM 33.1°F 10.9°F 40% 30.26 in 10.0 miles SSW 5.8 mph - N/A   Clear
9:54 PM 32.0°F 10.9°F 42% 30.25 in 10.0 miles SSW 5.8 mph - N/A   Clear
10:54 PM 32.0°F 12.0°F 44% 30.24 in 10.0 miles SSW 3.5 mph - N/A   Clear
11:54 PM 30.9°F 12.0°F 46% 30.23 in 10.0 miles South 3.5 mph - N/A   Clear
Astronomy
Sunrise:06:48 AM (EST) Moon Rise:11:23 AM (EST)
Sunset:05:39 PM (EST) Moon Set:01:26 AM (EST)
Moon Phase
Feb. 18 Feb. 25 Mar. 04 Mar. 11 Mar. 19

Copyright © 2014 The Weather Underground, Inc.